Wakefield, VA

10:04 AM EST on December 05, 2019 (GMT -0500)
Wakefield Municipal

Weather History for KAKQ - June, 2019

Change the Weather History Date:

Saturday, June 1, 2019

  Actual Average (WUND) Record (WUND)
Temperature  
Mean Temperature 73 °F -  
Max Temperature 82 °F - - (-1)
Min Temperature 64 °F - - (-1)
Cooling Degree Days 8    
Growing Degree Days 23 (Base 50)    
Moisture  
Dew Point 63 °F    
Average Humidity 83    
Maximum Humidity 96    
Minimum Humidity 49    
Precipitation  
Precipitation 0.03 in - - ()
Sea Level Pressure  
Sea Level Pressure 29.82 in    
Wind  
Wind Speed 3 mph (NNW)    
Max Wind Speed 7 mph    
Max Gust Speed -    
Visibility 7 miles    
Events Rain , Thunderstorm    
Averages and records for this station are not official NWS values.
T = Trace of Precipitation, MM = Missing Value Source: NWS Daily Summary

Daily Weather History Graph

Daily Weather History Graph

Search for Another Location

Airport or City:

Astronomy

Jun. 01, 2019 Rise Set
Actual Time 5:50 AM EDT 8:21 PM EDT
Civil Twilight 5:19 AM EDT 8:52 PM EDT
Nautical Twilight 4:42 AM EDT 9:29 PM EDT
Astronomical Twilight 4:00 AM EDT 10:11 PM EDT
Moon 4:49 AM EDT (6/1) 6:36 PM EDT (6/1)
Length of Visible Light 15h 32m
Length of Day
14h 31m
Waning Crescent, 4% of the Moon is Illuminated
Jun 1
Waning Crescent
Jun 3
New
Jun 10
First Quarter
Jun 17
Full
Jun 25
Last Quarter

Hourly Weather History & Observations

Time (EDT) Temp. Heat Index Dew Point Humidity Pressure Visibility Wind Dir Wind Speed Gust Speed Precip Events Conditions
12:12 AM 66.0 °F - 63.0 °F 90% 29.82 in 9.0 mi East 5.8 mph - 0.02 in Rain Light Rain
12:54 AM 64.9 °F - 63.0 °F 93% 29.78 in 10.0 mi Calm Calm - 0.02 in   Mostly Cloudy
1:54 AM 64.9 °F - 63.0 °F 93% 29.77 in 10.0 mi WSW 3.5 mph - N/A   Clear
2:51 AM 64.4 °F - 62.6 °F 94% 29.77 in 7.0 mi WNW 4.6 mph - N/A   Scattered Clouds
2:54 AM 64.0 °F - 63.0 °F 96% 29.77 in 7.0 mi Variable 4.6 mph - N/A   Mostly Cloudy
3:38 AM 64.9 °F - 63.0 °F 93% 29.77 in 1.8 mi West 4.6 mph - N/A   Overcast
3:52 AM 64.4 °F - 62.6 °F 94% 29.78 in 0.8 mi West 4.6 mph - N/A   Overcast
3:54 AM 64.9 °F - 63.0 °F 93% 29.78 in 1.0 mi West 4.6 mph - N/A   Overcast
4:03 AM 64.4 °F - 62.6 °F 94% 29.78 in 3.0 mi WSW 5.8 mph - N/A   Overcast
4:54 AM 64.9 °F - 63.0 °F 93% 29.80 in 7.0 mi NW 3.5 mph - N/A   Overcast
5:04 AM 64.9 °F - 63.0 °F 93% 29.81 in 7.0 mi Calm Calm - N/A   Overcast
5:54 AM 64.9 °F - 63.0 °F 93% 29.81 in 5.0 mi Calm Calm - N/A   Overcast
6:54 AM 64.9 °F - 62.1 °F 90% 29.83 in 4.0 mi North 3.5 mph - N/A   Mostly Cloudy
7:54 AM 66.0 °F - 62.1 °F 87% 29.84 in 10.0 mi Variable 5.8 mph - N/A   Overcast
8:31 AM 66.9 °F - 62.1 °F 84% 29.85 in 10.0 mi Variable 4.6 mph - N/A Thunderstorm Overcast
8:54 AM 66.9 °F - 61.0 °F 81% 29.84 in 10.0 mi North 3.5 mph - N/A Thunderstorm Overcast
9:11 AM 66.0 °F - 61.0 °F 84% 29.86 in 10.0 mi Variable 6.9 mph - N/A   Overcast
9:22 AM 66.9 °F - 61.0 °F 81% 29.86 in 10.0 mi NE 3.5 mph - N/A Thunderstorm Thunderstorm
9:47 AM 66.0 °F - 61.0 °F 84% 29.86 in 10.0 mi Variable 3.5 mph - 0.00 in Rain , Thunderstorm Light Rain
9:54 AM 66.0 °F - 62.1 °F 87% 29.86 in 7.0 mi Calm Calm - 0.00 in Rain , Thunderstorm Light Rain
10:03 AM 66.0 °F - 62.1 °F 87% 29.87 in 4.0 mi Calm Calm - 0.01 in Rain Light Rain
10:54 AM 70.0 °F - 63.0 °F 78% 29.87 in 10.0 mi East 4.6 mph - 0.01 in   Mostly Cloudy
11:54 AM 77.0 °F - 62.1 °F 60% 29.84 in 10.0 mi North 4.6 mph - N/A   Clear
12:54 PM 75.9 °F - 63.0 °F 64% 29.84 in 10.0 mi NNW 5.8 mph - N/A   Clear
1:54 PM 80.1 °F 80.9 °F 60.1 °F 50% 29.82 in 10.0 mi NE 3.5 mph - N/A   Clear
2:54 PM 82.0 °F 82.7 °F 61.0 °F 49% 29.81 in 10.0 mi WNW 5.8 mph - N/A   Clear
3:54 PM 82.0 °F 82.7 °F 61.0 °F 49% 29.80 in 10.0 mi Calm Calm - N/A   Partly Cloudy
4:54 PM 82.0 °F 83.1 °F 63.0 °F 52% 29.81 in 10.0 mi Variable 3.5 mph - N/A   Mostly Cloudy
5:54 PM 78.1 °F - 66.0 °F 66% 29.81 in 10.0 mi ENE 4.6 mph - 0.00 in   Partly Cloudy
6:54 PM 77.0 °F - 64.0 °F 64% 29.81 in 9.0 mi Calm Calm - N/A   Clear
7:54 PM 72.0 °F - 68.0 °F 87% 29.81 in 6.0 mi Calm Calm - N/A   Clear
8:54 PM 69.1 °F - 66.0 °F 90% 29.82 in 5.0 mi Calm Calm - N/A   Clear
9:54 PM 68.0 °F - 66.0 °F 93% 29.83 in 3.0 mi Calm Calm - N/A   Clear
10:19 PM 68.0 °F - 66.0 °F 93% 29.83 in 2.5 mi Calm Calm - N/A   Clear
10:35 PM 68.0 °F - 64.9 °F 90% 29.84 in 3.0 mi Calm Calm - N/A   Clear
10:54 PM 69.1 °F - 66.0 °F 90% 29.84 in 6.0 mi Calm Calm - N/A   Clear
11:45 PM 66.9 °F - 64.9 °F 93% 29.84 in 2.5 mi Calm Calm - N/A   Clear
11:54 PM 66.9 °F - 64.0 °F 90% 29.84 in 2.5 mi Calm Calm - N/A   Clear